KS4XQ Weather Reports


Display with metric or nautical units.
time (UTC)temp
F
wind
direction
speed
MPH
gust
MPH
rain 1hr
in
rain 24hr
in
rain mn
in
humidity
%
barometer
mb
20260503192502 69 286 3.0 6.0 0.00 0.00 0.00 42 1017.8
20260503191502 69 297 3.0 8.0 0.00 0.00 0.00 43 1018.0
20260503191003 69 338 2.0 8.0 0.00 0.00 0.00 43 1018.2
20260503190004 70 238 3.0 9.0 0.00 0.00 0.00 41 1018.2
20260503185502 70 294 3.0 9.0 0.00 0.00 0.00 40 1018.3
20260503184502 69 298 2.0 9.0 0.00 0.00 0.00 40 1018.4
20260503183503 69 293 2.0 9.0 0.00 0.00 0.00 45 1018.4
20260503183002 69 40 2.0 8.0 0.00 0.00 0.00 42 1018.4
20260503182504 70 329 2.0 8.0 0.00 0.00 0.00 39 1018.4
20260503182002 70 277 2.0 5.0 0.00 0.00 0.00 41 1018.4
20260503181502 70 203 2.0 9.0 0.00 0.00 0.00 44 1018.5
20260503181002 69 277 3.0 9.0 0.00 0.00 0.00 40 1018.4
20260503180504 69 345 2.0 7.0 0.00 0.00 0.00 43 1018.5
20260503180003 68 227 2.0 7.0 0.00 0.00 0.00 43 1018.7
20260503175501 68 218 1.0 5.0 0.00 0.00 0.00 39 1018.6
20260503175002 67 288 2.0 7.0 0.00 0.00 0.00 46 1018.6
20260503174502 68 286 2.0 7.0 0.00 0.00 0.00 42 1018.7
20260503174001 68 16 2.0 7.0 0.00 0.00 0.00 46 1018.6
20260503173501 67 184 2.0 9.0 0.00 0.00 0.00 44 1018.7
20260503173004 68 320 2.0 9.0 0.00 0.00 0.00 44 1018.7
20260503172001 67 119 2.0 6.0 0.00 0.00 0.00 44 1018.9
20260503171003 66 303 2.0 8.0 0.00 0.00 0.00 44 1019.1
20260503170501 67 281 2.0 9.0 0.00 0.00 0.00 45 1019.2
20260503151001 61 265 1.0 4.0 0.00 0.00 0.00 54 1020.3
20260503150503 61 244 1.0 3.0 0.00 0.00 0.00 57 1020.2
20260503130501 45 96 1.0 3.0 0.00 0.00 0.00 95 1019.9
20260503110503 37 232 0.0 0.0 0.00 0.00 0.00 93 1019.0
20260503090502 39 232 0.0 0.0 0.00 0.00 0.00 93 1017.6
20260503081500 41 232 0.0 0.0 0.00 0.00 0.00 93 1017.0
20260503081000 41 232 0.0 0.0 0.00 0.00 0.00 93 1017.1
20260503080500 41 232 0.0 0.0 0.00 0.00 0.00 92 1016.9
20260503072501 42 232 0.0 1.0 0.00 0.00 0.00 93 1016.7
20260503071959 42 232 0.0 2.0 0.00 0.00 0.00 93 1016.6
20260503071500 42 225 0.0 0.0 0.00 0.00 0.00 92 1016.6
20260503071000 42 225 0.0 0.0 0.00 0.00 0.00 92 1016.5
20260503070501 42 225 0.0 0.0 0.00 0.00 0.00 92 1016.4
20260503055000 44 225 0.0 0.0 0.00 0.00 0.00 93 1016.2
20260503054502 44 225 0.0 1.0 0.00 0.00 0.00 92 1016.2
20260503053459 44 225 0.0 2.0 0.00 0.00 0.00 93 1016.3
20260503052501 44 225 0.0 0.0 0.00 0.00 0.00 91 1016.2
20260503052000 45 225 0.0 0.0 0.00 0.00 0.00 92 1016.3
20260503051500 45 225 0.0 0.0 0.00 0.00 0.00 92 1016.3
20260503051001 45 225 0.0 0.0 0.00 0.00 0.00 90 1016.3
20260503045500 45 225 0.0 0.0 0.00 0.00 0.00 90 1016.3
20260503045000 45 225 0.0 0.0 0.00 0.00 0.00 90 1016.2
20260503044500 45 225 0.0 0.0 0.00 0.00 0.00 90 1016.1
20260503044002 45 225 0.0 0.0 0.00 0.00 0.00 89 1016.1
20260503043500 45 225 0.0 0.0 0.00 0.00 0.00 90 1016.2
20260503042500 46 225 0.0 0.0 0.00 0.00 0.00 89 1016.4
20260503042000 46 225 0.0 0.0 0.00 0.00 0.00 89 1016.4
20260503041500 46 225 0.0 0.0 0.00 0.00 0.00 89 1016.4
20260503041002 46 225 0.0 0.0 0.00 0.00 0.00 88 1016.3
20260503040500 46 225 0.0 0.0 0.00 0.00 0.00 89 1016.3
20260503035001 47 225 0.0 0.0 0.00 0.00 0.00 87 1016.1
20260503034004 47 225 0.0 0.0 0.00 0.00 0.00 87 1016.0
20260503033502 47 225 0.0 0.0 0.00 0.00 0.00 87 1015.9
20260503033002 47 225 0.0 0.0 0.00 0.00 0.00 87 1015.8
20260503032502 48 225 0.0 0.0 0.00 0.00 0.00 87 1015.7
20260503032003 48 225 0.0 0.0 0.00 0.00 0.00 87 1015.8
20260503031501 48 225 0.0 0.0 0.00 0.00 0.00 87 1015.7
20260503031002 48 225 0.0 0.0 0.00 0.00 0.00 86 1015.6
20260503030503 48 225 0.0 0.0 0.00 0.00 0.00 86 1015.6
20260503030005 49 225 0.0 1.0 0.00 0.00 0.00 86 1015.6
20260503025002 49 225 0.0 0.0 0.00 0.00 0.00 86 1015.4
20260503024502 49 225 0.0 0.0 0.00 0.00 0.00 85 1015.5
20260503024003 49 225 0.0 0.0 0.00 0.00 0.00 85 1015.4
20260503023502 50 225 0.0 0.0 0.00 0.00 0.00 85 1015.3
20260503023001 50 225 1.0 2.0 0.00 0.00 0.00 85 1015.3
20260503022502 50 225 0.0 2.0 0.00 0.00 0.00 86 1015.2
20260503022003 50 355 0.0 2.0 0.00 0.00 0.00 84 1015.1
20260503021502 51 355 0.0 2.0 0.00 0.00 0.00 85 1015.0
20260503021002 51 315 0.0 1.0 0.00 0.00 0.00 84 1015.0
20260503020501 51 315 0.0 1.0 0.00 0.00 0.00 82 1015.0
20260503020006 52 310 0.0 0.0 0.00 0.00 0.00 80 1014.8
20260503015002 52 310 0.0 0.0 0.00 0.00 0.00 80 1014.7
20260503014502 53 310 0.0 0.0 0.00 0.00 0.00 79 1014.7
20260503014003 53 310 0.0 0.0 0.00 0.00 0.00 79 1014.6
20260503013002 53 310 0.0 0.0 0.00 0.00 0.00 78 1014.3
20260503011502 54 310 0.0 0.0 0.00 0.00 0.00 76 1014.0
20260503010502 55 310 0.0 0.0 0.00 0.00 0.00 77 1013.8
20260503004501 56 310 0.0 0.0 0.00 0.00 0.00 75 1013.3
20260503004001 56 310 0.0 0.0 0.00 0.00 0.00 74 1013.0
20260503003502 57 310 0.0 0.0 0.00 0.00 0.00 75 1012.9
20260503002502 57 310 0.0 0.0 0.00 0.00 0.00 74 1012.8
20260503002003 58 310 0.0 0.0 0.00 0.00 0.00 74 1012.8
20260503001502 58 310 0.0 2.0 0.00 0.00 0.00 75 1012.7
20260503001002 58 310 0.0 2.0 0.00 0.00 0.00 74 1012.7
20260503000502 58 47 0.0 0.0 0.00 0.00 0.00 73 1012.4
20260503000006 58 47 0.0 0.0 0.00 0.00 0.00 72 1012.3
20260502235502 59 47 0.0 0.0 0.00 0.00 0.00 71 1012.3
20260502235002 59 47 0.0 0.0 0.00 0.00 0.00 71 1012.2
20260502234504 59 47 0.0 0.0 0.00 0.00 0.00 72 1012.2
20260502233502 60 47 0.0 0.0 0.00 0.00 0.00 71 1012.1
20260502233002 60 47 0.0 0.0 0.00 0.00 0.00 71 1012.0
20260502232502 60 47 0.0 0.0 0.00 0.00 0.00 70 1012.0
20260502232004 60 47 0.0 0.0 0.00 0.00 0.00 70 1012.0
20260502231502 60 47 0.0 0.0 0.00 0.00 0.00 68 1012.0
20260502230502 61 47 0.0 0.0 0.00 0.00 0.00 66 1011.8
20260502230006 61 47 0.0 0.0 0.00 0.00 0.00 66 1011.8
20260502225002 61 47 0.0 0.0 0.00 0.00 0.00 63 1011.8
20260502224507 62 47 0.0 0.0 0.00 0.00 0.00 62 1011.7
20260502224003 62 47 0.0 0.0 0.00 0.00 0.00 61 1011.7
20260502223502 62 47 0.0 0.0 0.00 0.00 0.00 58 1011.6
20260502222502 62 47 0.0 1.0 0.00 0.00 0.00 61 1011.5
20260502222004 62 47 0.0 1.0 0.00 0.00 0.00 60 1011.6
20260502221502 62 47 0.0 1.0 0.00 0.00 0.00 57 1011.5
20260502221002 63 30 0.0 1.0 0.00 0.00 0.00 58 1011.5
20260502220502 63 30 0.0 1.0 0.00 0.00 0.00 57 1011.5
20260502220006 63 30 0.0 2.0 0.00 0.00 0.00 57 1011.4
20260502215504 63 74 0.0 2.0 0.00 0.00 0.00 60 1011.2
20260502215002 63 108 0.0 1.0 0.00 0.00 0.00 62 1011.4
20260502214502 63 108 0.0 0.0 0.00 0.00 0.00 61 1011.4
20260502214002 63 108 0.0 3.0 0.00 0.00 0.00 60 1011.4
20260502213002 63 106 1.0 3.0 0.00 0.00 0.00 58 1011.1
20260502212502 63 108 1.0 3.0 0.00 0.00 0.00 59 1011.2
20260502212002 63 97 1.0 3.0 0.00 0.00 0.00 61 1011.1
20260502211504 63 95 1.0 3.0 0.00 0.00 0.00 60 1011.1
20260502211002 63 85 1.0 3.0 0.00 0.00 0.00 61 1011.0
20260502210502 63 330 1.0 3.0 0.00 0.00 0.00 60 1011.0
20260502205001 63 126 1.0 6.0 0.00 0.00 0.00 56 1011.1
20260502204502 63 26 1.0 6.0 0.00 0.00 0.00 56 1011.1
20260502203501 63 104 1.0 3.0 0.00 0.00 0.00 56 1011.2
20260502203002 62 94 1.0 4.0 0.00 0.00 0.00 58 1011.2
20260502202501 62 122 1.0 4.0 0.00 0.00 0.00 62 1011.2
20260502202003 62 103 0.0 3.0 0.00 0.00 0.00 62 1011.4
20260502201001 62 61 1.0 2.0 0.00 0.00 0.00 58 1011.4
20260502200502 63 61 1.0 3.0 0.00 0.00 0.00 59 1011.4
20260502200005 63 113 0.0 2.0 0.00 0.00 0.00 61 1011.5
20260502195502 64 103 0.0 2.0 0.00 0.00 0.00 58 1011.4
20260502195002 64 103 1.0 2.0 0.00 0.00 0.00 57 1011.3
20260502194504 64 235 1.0 3.0 0.00 0.00 0.00 55 1011.3
20260502194002 65 47 1.0 3.0 0.00 0.00 0.00 51 1011.2
20260502193502 66 320 1.0 4.0 0.00 0.00 0.00 48 1011.3